Weather History for Coldwater, MI

Change the Weather History Date:

Tuesday, December 11, 2012

  Actual Average (KJYM) Record (KJYM)
Temperature  
Mean Temperature 29 °F -  
Max Temperature 32 °F 35 °F 58 °F (1949)
Min Temperature 26 °F 19 °F -12 °F (1977)
Degree Days  
Heating Degree Days 36    
Moisture  
Dew Point 23 °F    
Average Humidity 77    
Maximum Humidity 96    
Minimum Humidity 61    
Precipitation  
Precipitation 0.00 in - - ()
Sea Level Pressure  
Sea Level Pressure 30.00 in    
Wind  
Wind Speed 4 mph (SW)    
Max Wind Speed 16 mph    
Max Gust Speed 22 mph    
Visibility 10 miles    
Events Snow    
Averages and records for this station are not official NWS values.
T = Trace of Precipitation, MM = Missing Value Source: NWS Daily Summary

Daily Weather History Graph

Daily Weather History Graph

Search for Another Location

Airport:

Trip Planner

Search our weather history database for the weather conditions in past years. The results will help you decide how hot, cold, wet, or windy it might be!

Date:

Astronomy

Dec. 11, 2012 Rise Set
Actual Time 7:58 AM EST 5:09 PM EST
Civil Twilight 7:26 AM EST 5:40 PM EST
Nautical Twilight 6:51 AM EST 6:15 PM EST
Astronomical Twilight 6:17 AM EST 6:49 PM EST
Moon 5:51 AM EST (12/11) 3:48 PM EST (12/11)
Length of Visible Light 10h 13m
Length of Day
9h 10m
Waning Crescent, 4% of the Moon is Illuminated
Dec 11
Waning Crescent
Dec 13
New
Dec 20
First Quarter
Dec 28
Full
Jan 4
Last Quarter

Hourly Weather History & Observations

Time (EST) Temp. Windchill Dew Point Humidity Pressure Visibility Wind Dir Wind Speed Gust Speed Precip Events Conditions
12:15 AM 30.2 °F - 22.3 °F 72% 29.88 in 10.0 mi Calm Calm - N/A   Overcast
12:34 AM 30.0 °F - 22.6 °F 74% 29.86 in 10.0 mi Calm Calm - N/A   Overcast
12:55 AM 30.2 °F - 22.8 °F 74% 29.88 in 10.0 mi Calm Calm - N/A   Overcast
1:15 AM 28.9 °F - 23.0 °F 78% 29.88 in 10.0 mi Calm Calm - N/A   Overcast
1:34 AM 29.5 °F - 22.1 °F 74% 29.88 in 10.0 mi Calm Calm - N/A   Overcast
1:55 AM 29.3 °F - 21.9 °F 74% 29.87 in 10.0 mi Calm Calm - N/A   Overcast
2:14 AM 28.8 °F - 23.0 °F 79% 29.88 in 10.0 mi Calm Calm - N/A   Overcast
2:35 AM 28.9 °F - 23.5 °F 80% 29.89 in 10.0 mi Calm Calm - N/A   Mostly Cloudy
2:55 AM 28.4 °F - 23.7 °F 83% 29.89 in 10.0 mi Calm Calm - N/A   Mostly Cloudy
3:14 AM 28.8 °F - 23.9 °F 82% 29.90 in 10.0 mi Calm Calm - N/A   Overcast
3:35 AM 28.4 °F - 24.6 °F 86% 29.91 in 10.0 mi Calm Calm - N/A   Overcast
3:54 AM 28.4 °F 23.3 °F 24.8 °F 86% 29.92 in 10.0 mi WSW 4.6 mph - N/A   Overcast
4:15 AM 28.9 °F 25.2 °F 24.8 °F 84% 29.92 in 10.0 mi WSW 3.5 mph - N/A   Overcast
4:35 AM 28.9 °F 25.2 °F 25.3 °F 86% 29.92 in 10.0 mi WSW 3.5 mph - N/A Snow Light Snow
4:54 AM 28.9 °F - 25.2 °F 86% 29.92 in 10.0 mi Calm Calm - N/A   Overcast
5:15 AM 28.4 °F - 25.5 °F 89% 29.92 in 10.0 mi Calm Calm - N/A   Overcast
5:35 AM 29.1 °F - 26.1 °F 88% 29.93 in 10.0 mi Calm Calm - N/A   Overcast
5:54 AM 29.1 °F - 25.7 °F 87% 29.93 in 10.0 mi Calm Calm - N/A   Overcast
6:15 AM 29.3 °F - 26.4 °F 89% 29.94 in 7.0 mi Calm Calm - N/A Snow Light Snow
6:35 AM 29.3 °F - 26.6 °F 90% 29.94 in 4.0 mi Calm Calm - N/A Snow Light Snow
6:54 AM 29.3 °F - 27.5 °F 93% 29.95 in 1.8 mi Calm Calm - N/A Snow Light Snow
7:15 AM 29.3 °F 25.6 °F 28.2 °F 96% 29.96 in 4.0 mi SW 3.5 mph - N/A Snow Light Snow
7:34 AM 29.8 °F 24.9 °F 28.2 °F 94% 29.96 in 4.0 mi SW 4.6 mph - N/A Snow Light Snow
7:54 AM 29.8 °F 21.5 °F 28.2 °F 94% 29.97 in 7.0 mi WSW 9.2 mph - N/A   Overcast
8:15 AM 29.8 °F 22.2 °F 27.3 °F 90% 29.98 in 7.0 mi WSW 8.1 mph - N/A   Overcast
8:34 AM 29.5 °F 22.5 °F 25.5 °F 85% 29.98 in 10.0 mi WSW 6.9 mph - N/A   Overcast
8:55 AM 29.1 °F 21.3 °F 24.6 °F 83% 29.99 in 10.0 mi WSW 8.1 mph - N/A   Scattered Clouds
9:15 AM 29.3 °F 20.8 °F 23.9 °F 80% 29.99 in 10.0 mi WSW 9.2 mph - N/A   Clear
9:34 AM 30.0 °F 21.1 °F 23.2 °F 76% 30.00 in 10.0 mi WSW 10.4 mph - N/A   Clear
9:55 AM 30.7 °F 22.6 °F 23.0 °F 73% 30.00 in 10.0 mi SW 9.2 mph - N/A   Clear
10:15 AM 30.7 °F 21.4 °F 23.2 °F 74% 30.01 in 10.0 mi WSW 11.5 mph - N/A   Clear
10:34 AM 31.6 °F 23.1 °F 23.9 °F 73% 30.01 in 10.0 mi SW 10.4 mph - N/A   Scattered Clouds
10:55 AM 30.6 °F 23.1 °F 24.6 °F 79% 30.02 in 10.0 mi SW 8.1 mph - N/A   Overcast
11:15 AM 30.7 °F 20.4 °F 24.1 °F 76% 30.02 in 10.0 mi WSW 13.8 mph - N/A   Overcast
11:34 AM 30.9 °F 20.2 °F 23.5 °F 74% 30.02 in 10.0 mi SW 15.0 mph - N/A   Overcast
11:55 AM 31.6 °F 21.2 °F 23.2 °F 71% 30.01 in 10.0 mi SW 15.0 mph - N/A   Overcast
12:15 PM 31.8 °F 21.8 °F 22.1 °F 67% 30.01 in 10.0 mi SW 13.8 mph 17.3 mph N/A   Overcast
12:34 PM 32.0 °F 21.2 °F 21.0 °F 64% 30.01 in 10.0 mi WSW 16.1 mph 20.7 mph N/A   Overcast
12:55 PM 31.6 °F 21.6 °F 20.8 °F 64% 30.02 in 10.0 mi SW 13.8 mph 18.4 mph N/A   Overcast
1:14 PM 31.1 °F 22.4 °F 20.1 °F 64% 30.02 in 10.0 mi SW 10.4 mph - N/A   Overcast
1:34 PM 31.8 °F 22.8 °F 20.3 °F 62% 30.02 in 10.0 mi SW 11.5 mph 18.4 mph N/A   Overcast
1:55 PM 31.3 °F 22.7 °F 20.8 °F 65% 30.02 in 10.0 mi SW 10.4 mph 21.9 mph N/A   Mostly Cloudy
2:14 PM 32.0 °F 23.6 °F 21.6 °F 65% 30.02 in 10.0 mi SW 10.4 mph - N/A   Mostly Cloudy
2:35 PM 31.8 °F 23.3 °F 21.0 °F 64% 30.02 in 10.0 mi WSW 10.4 mph 18.4 mph N/A   Mostly Cloudy
2:55 PM 32.2 °F 21.8 °F 20.8 °F 63% 30.01 in 10.0 mi WSW 15.0 mph 18.4 mph N/A   Mostly Cloudy
3:14 PM 32.0 °F 23.6 °F 19.9 °F 61% 30.01 in 10.0 mi SSW 10.4 mph 20.7 mph N/A   Scattered Clouds
3:35 PM 32.0 °F 23.6 °F 20.5 °F 63% 30.02 in 10.0 mi SW 10.4 mph - N/A   Clear
3:55 PM 32.0 °F 24.2 °F 20.3 °F 62% 30.03 in 10.0 mi SW 9.2 mph 19.6 mph N/A   Scattered Clouds
4:14 PM 31.8 °F 22.3 °F 19.9 °F 62% 30.03 in 10.0 mi SW 12.7 mph 16.1 mph N/A   Scattered Clouds
4:35 PM 31.1 °F 22.4 °F 19.8 °F 63% 30.04 in 10.0 mi SW 10.4 mph - N/A   Scattered Clouds
4:55 PM 30.2 °F 20.8 °F 19.6 °F 65% 30.04 in 10.0 mi SW 11.5 mph - N/A   Clear
5:14 PM 29.3 °F 20.8 °F 20.3 °F 69% 30.04 in 10.0 mi SW 9.2 mph - N/A   Clear
5:35 PM 29.3 °F 21.5 °F 20.1 °F 69% 30.05 in 10.0 mi SW 8.1 mph - N/A   Clear
5:54 PM 28.4 °F 23.3 °F 20.3 °F 72% 30.05 in 10.0 mi SSW 4.6 mph - N/A   Clear
6:14 PM 28.4 °F 21.2 °F 20.7 °F 73% 30.05 in 10.0 mi SSW 6.9 mph - N/A   Clear
6:35 PM 28.8 °F 21.7 °F 20.3 °F 71% 30.06 in 10.0 mi SSW 6.9 mph - N/A   Clear
6:54 PM 28.8 °F 20.9 °F 20.3 °F 71% 30.06 in 10.0 mi SSW 8.1 mph - N/A   Clear
7:15 PM 28.4 °F 21.2 °F 20.8 °F 73% 30.06 in 10.0 mi SSW 6.9 mph - N/A   Clear
7:34 PM 28.2 °F 20.2 °F 20.8 °F 74% 30.07 in 10.0 mi SSW 8.1 mph - N/A   Clear
7:54 PM 28.2 °F 21.0 °F 21.2 °F 75% 30.07 in 10.0 mi SSW 6.9 mph - N/A   Clear
8:15 PM 28.0 °F 20.8 °F 21.2 °F 76% 30.08 in 10.0 mi SW 6.9 mph - N/A   Clear
8:34 PM 27.5 °F 19.3 °F 21.6 °F 78% 30.09 in 10.0 mi SW 8.1 mph - N/A   Clear
8:54 PM 27.5 °F 21.1 °F 21.6 °F 78% 30.10 in 10.0 mi SW 5.8 mph - N/A   Clear
9:15 PM 27.1 °F 20.7 °F 21.4 °F 79% 30.11 in 10.0 mi SW 5.8 mph - N/A   Clear
9:34 PM 26.8 °F 20.2 °F 21.6 °F 81% 30.11 in 10.0 mi SW 5.8 mph - N/A   Clear
9:55 PM 26.6 °F 20.0 °F 21.4 °F 81% 30.12 in 10.0 mi SW 5.8 mph - N/A   Scattered Clouds
10:15 PM 26.4 °F 19.8 °F 21.2 °F 81% 30.12 in 10.0 mi SSW 5.8 mph - N/A   Clear
10:34 PM 26.2 °F 19.6 °F 21.2 °F 81% 30.12 in 10.0 mi SW 5.8 mph - N/A   Clear
10:55 PM 26.2 °F 18.6 °F 21.2 °F 81% 30.12 in 10.0 mi SW 6.9 mph - N/A   Clear
11:15 PM 26.6 °F 19.1 °F 21.6 °F 81% 30.13 in 10.0 mi SW 6.9 mph - N/A   Clear
11:34 PM 27.1 °F 18.2 °F 21.7 °F 80% 30.13 in 10.0 mi SW 9.2 mph - N/A   Clear
11:55 PM 27.3 °F 19.1 °F 21.9 °F 80% 30.13 in 10.0 mi SW 8.1 mph - N/A   Clear